Location: Le Pont-de-Coulogne
(50.9242°N, 1.8700°E)
Time: 08:25:39
(UTC+00:00)

Spot 4 - Pass Details

Date: 15 May 2026
Orbit: 698 x 714 km, 98.2° (Epoch: 5 June)

Event Time Altitude Azimuth Distance (km) Brightness Sun altitude
Exits shadow 23:36:11 36° 215° (SW) 1,104 4.4 -20.0°
Maximum altitude 23:37:35 48° 261° (W) 929 4.3 -20.0°
Drops below altitude 10° 23:42:14 10° 336° (NNW) 2,194 7.4 -20.0°
Sets 23:44:36 0° 342° (NNW) 3,121 8.5 -20.0°
